EUTELSAT 36B

Last updated on Nov. 18, 2019, 4:21 a.m. UTC

1 36101U 09065A   19321.31299289  .00000163  00000-0  00000+0 0  9999
2 36101   0.0685   5.7834 0004668 226.2772 332.6248  1.00269607 36706
UTC
Height (km)
Latitude
Longitude
Inclination
Orbital Period
UTC large
Height (km)
Speed (km/s)
/
Latitude / Longitude
Inclination (degrees)
Orbital Period (minutes)
Azimuth
Elevation
Range (km)
Doppler Factor
iOS Compass Heading
iOS Angle

Next 30 passes for location: Hong Kong

Rise time Rise Azimuth (degrees) Set time Set Azimuth (degrees) Duration Max altitude (degrees)

No matching passes for this satellites